Location: Omaha
(41.2590°N, 95.9380°W)
Time: 13:56:33
(UTC-05:00)

OTV 5 (USA 277) - Pass Details

Date: 13 October 2017
Orbit: 404 x 417 km, 43.0° (Epoch: 07 September)

Event Time Altitude Azimuth Distance (km) Brightness Sun altitude
Rises 19:19:57 0° 249° (WSW) 2,348 ? -7.3°
Reaches altitude 10° 19:22:04 10° 247° (WSW) 1,487 ? -7.6°
Maximum altitude 19:25:25 75° 163° (SSE) 434 ? -8.3°
Enters shadow 19:28:29 12° 77° (ENE) 1,366 ? -8.9°
